Simultaneous Nadir Overpasses (SNOs) Predictions

Prediction of SNOs between GOES-14 and AQUA Satellite Orbit:

Table of predicted SNOs for the next 14.0 days since TLE Epoch: 3/16/2024
Index Date Time (GOES-14) GOES-14 Lat,Lon AQUA Lat,Lon Distance(km) Time Diff (sec)
1 03/17/2024 21:18:35 -0.13,-108.45 -0.10,-108.25 23.09 80
2 03/19/2024 21:02:47 -0.14,-108.46 0.73,-104.39 463.26 80
3 03/20/2024 09:23:06 0.14,-108.46 0.33,-109.30 96.42 80
4 03/22/2024 09:04:37 0.15,-108.47 -0.49,-105.44 344.26 80
5 03/22/2024 21:25:05 -0.15,-108.47 -0.56,-110.39 218.22 80
6 03/24/2024 21:11:55 -0.15,-108.49 0.26,-106.52 223.27 80
7 03/25/2024 09:32:14 0.15,-108.49 0.78,-111.44 335.53 80
8 03/27/2024 09:13:44 0.15,-108.50 -0.08,-107.57 105.98 80
9 03/27/2024 21:34:11 -0.15,-108.50 -1.00,-112.52 457.04 80
10 03/29/2024 21:18:19 -0.15,-108.51 -0.21,-108.64 15.66 80
